Theta_e
305 297 296 296 297 300 301 302 302 303 302 301 300 300 299 299 300 302 302 303 304 300 300 300 301 301 302 304 306 307 308 307 307 308 310 311 311 314 325 325 324 323 323 334 335 338 341 342 340 342 341 339 340 340 342 341 338 338 337 338 338 342 342 339 337 337 336 336 336 338 336 337 340 339 342 340 340 341 342 340 340 344 343 345 345 344
304 296 297 300 300 301 302 303 304 302 303 300 300 299 297 298 297 301 302 303 305 301 299 302 301 301 302 304 305 307 307 306 307 308 309 310 311 311 316 323 324 321 327 333 333 337 341 340 340 342 340 339 338 338 340 338 337 338 338 337 338 340 340 338 338 336 336 337 337 335 336 338 334 340 338 338 340 340 341 342 342 344 344 345 345 345
298 295 299 302 303 303 304 304 303 302 302 302 299 298 297 298 300 303 302 304 304 301 298 301 299 300 303 304 305 306 305 307 309 309 309 309 310 310 311 322 326 325 327 330 333 336 338 340 342 341 340 340 340 340 338 338 338 339 336 338 338 337 338 337 338 337 335 339 335 338 340 339 338 340 340 336 339 340 340 343 344 345 344 343 343 345
296 298 301 303 304 302 302 303 303 303 302 299 299 297 295 299 297 296 302 302 303 301 299 301 299 300 303 305 306 307 306 307 308 309 309 309 309 310 311 315 323 324 326 328 329 332 336 337 339 339 339 341 339 338 338 338 337 337 336 337 337 338 338 338 338 337 338 338 336 339 340 342 341 337 339 342 343 338 340 342 344 344 345 344 343 343
298 302 305 303 303 302 301 302 301 300 298 300 299 299 298 298 299 299 299 302 303 303 304 301 299 298 301 300 302 305 307 306 307 308 309 310 310 311 313 314 319 324 326 322 324 330 334 336 338 339 339 341 339 337 335 336 337 337 338 338 338 338 337 337 338 338 339 336 336 338 338 338 336 337 338 337 338 337 341 340 342 342 345 344 342 341
299 304 305 302 302 302 300 299 299 300 296 298 301 300 300 300 299 300 301 299 298 297 301 299 292 293 300 300 301 303 305 304 306 306 307 308 310 310 310 313 316 325 327 325 324 327 333 331 339 339 338 339 339 337 336 337 338 338 338 339 339 339 338 338 338 339 340 336 335 332 330 327 329 328 332 332 334 335 338 337 342 343 343 343 342 341
300 305 303 301 301 300 299 298 301 300 297 296 298 302 301 301 300 299 298 298 293 291 299 303 292 289 299 299 302 304 304 304 306 306 306 307 308 309 309 311 312 317 325 326 326 328 329 334 339 338 338 337 337 337 338 338 339 339 340 339 339 339 338 339 338 340 341 337 336 334 332 332 330 327 333 336 341 338 338 339 341 342 343 342 343 342
302 302 302 302 301 299 298 296 300 301 297 295 301 301 301 300 299 298 298 297 296 300 301 300 299 292 292 298 303 304 303 303 305 306 307 306 308 308 310 312 312 313 321 324 327 325 328 333 337 337 339 337 335 337 337 338 338 339 340 339 339 339 338 339 339 340 338 335 335 335 336 334 335 332 334 335 340 340 339 339 340 342 342 342 342 342
303 301 301 299 299 298 297 299 301 302 298 298 302 301 300 300 299 299 298 297 298 296 292 297 300 293 292 297 302 303 300 302 302 304 306 309 311 313 314 315 313 313 320 328 326 324 326 333 337 336 330 324 325 335 337 338 338 339 339 340 339 339 339 339 339 340 341 337 335 334 335 333 332 333 336 336 338 338 339 340 340 339 339 340 341 340
302 303 303 301 299 297 300 302 302 302 298 301 302 303 302 301 300 299 297 296 296 293 288 294 298 291 292 298 299 301 300 300 302 309 312 313 313 313 313 314 315 315 320 328 326 327 330 330 332 328 328 325 325 331 336 338 339 339 340 339 339 339 338 339 338 339 339 340 340 337 337 334 335 338 336 337 335 336 339 339 338 338 337 337 338 339
304 308 307 303 300 301 302 303 303 303 302 304 302 300 299 299 298 299 298 297 295 287 291 296 297 294 289 296 298 296 300 307 308 312 312 312 314 314 316 316 316 316 320 327 328 328 334 330 328 325 324 328 328 333 338 337 338 339 337 339 339 339 338 340 340 339 338 338 340 338 337 335 332 331 336 337 335 337 337 336 336 335 335 336 335 335
302 303 301 303 306 305 304 301 304 304 304 302 299 297 296 295 298 296 296 297 288 286 293 297 296 297 287 294 299 305 308 309 309 307 310 311 311 316 320 316 316 319 325 328 329 330 332 327 329 328 328 331 329 333 335 335 335 337 337 339 338 339 339 338 340 338 332 335 336 337 336 333 332 333 333 333 332 336 335 335 333 333 334 333 335 336
298 299 302 303 306 304 302 300 301 303 302 300 298 297 291 289 290 286 292 285 287 286 294 297 298 294 293 298 307 304 306 308 312 311 310 310 310 314 318 320 320 324 324 322 327 329 331 328 331 332 332 331 331 332 333 331 332 331 333 328 330 333 340 338 335 336 334 335 334 334 331 329 330 334 335 334 332 334 333 333 332 333 332 333 333 334
296 301 301 301 303 304 303 295 296 296 299 298 296 294 290 286 285 282 287 289 290 294 297 297 299 292 297 300 305 307 310 311 313 313 315 314 316 319 320 320 322 324 326 324 324 328 330 329 331 333 333 333 333 333 332 332 329 329 329 329 329 334 339 337 335 334 333 331 331 333 333 330 331 334 335 335 333 333 333 333 332 332 333 332 333 334
288 290 297 299 296 304 301 300 299 298 298 297 299 296 293 291 287 281 286 283 286 289 295 299 295 291 292 297 307 309 310 310 313 314 316 319 321 321 322 321 322 321 322 325 326 328 331 331 331 332 333 333 334 334 332 331 329 328 330 329 330 329 330 331 331 331 330 332 333 333 333 334 335 334 336 336 335 334 332 333 333 333 334 333 334 333
293 293 300 303 303 304 300 303 303 301 299 300 300 300 294 290 296 288 290 290 290 289 290 294 292 297 299 307 308 309 310 312 313 314 316 316 317 322 322 322 322 323 320 324 327 327 328 331 331 332 332 334 335 335 334 333 332 332 330 330 329 327 328 325 326 330 329 333 332 337 333 332 334 335 333 334 334 334 334 334 333 334 334 333 333 334
294 292 299 302 305 303 302 304 302 303 290 298 298 293 295 301 298 291 291 295 293 290 287 294 296 298 305 304 308 309 310 309 313 314 315 316 316 318 319 320 321 324 324 324 326 326 328 328 331 331 332 333 333 333 333 334 334 329 325 327 327 326 328 328 328 330 331 335 335 337 335 338 336 334 333 332 334 334 335 335 334 333 334 334 334 334
293 292 299 300 298 303 305 305 304 303 303 300 295 298 302 303 302 295 287 289 288 285 286 293 291 294 295 290 305 306 306 311 310 313 313 315 317 317 317 319 321 322 324 326 327 327 327 328 328 329 330 332 333 333 335 335 329 327 327 327 326 327 326 326 325 325 330 335 336 336 336 337 336 332 333 334 334 335 334 334 335 335 333 333 334 334
299 291 297 300 300 302 304 303 301 304 304 299 298 305 296 289 288 296 290 283 284 283 286 290 293 294 296 295 301 300 304 306 310 311 312 312 313 316 318 319 321 322 323 324 324 325 327 327 328 328 329 330 332 334 333 330 327 326 328 327 327 327 327 326 325 327 333 334 331 331 334 335 335 334 334 335 335 335 333 333 333 334 333 334 333 333
303 291 294 301 300 301 301 299 291 297 302 303 303 299 302 299 296 291 291 293 291 284 285 287 293 288 297 299 303 305 306 309 309 310 310 312 314 315 316 318 319 321 322 323 323 324 325 326 327 328 328 329 330 331 332 330 328 327 327 328 329 330 329 328 328 330 330 333 334 335 337 337 336 334 333 334 333 332 333 332 333 333 333 332 330 331
296 302 288 297 301 300 294 298 295 297 295 296 296 296 298 299 301 298 299 293 290 287 286 286 285 290 301 306 304 307 308 310 310 310 311 313 314 315 317 318 318 319 321 321 322 322 325 326 327 328 330 330 330 331 331 330 328 327 329 329 329 328 329 328 329 329 330 332 334 335 336 336 335 333 331 332 332 332 333 334 333 333 334 332 330 330
295 297 290 295 295 295 297 301 300 300 300 298 296 295 296 295 293 289 288 297 293 289 285 285 283 293 302 308 308 309 311 312 312 311 312 314 314 315 316 317 318 318 319 320 322 323 324 326 327 328 328 329 331 331 330 329 329 329 330 329 329 328 329 330 329 330 330 332 333 334 335 336 335 332 332 331 332 332 331 332 332 334 333 332 331 329
303 301 297 290 295 296 299 304 305 304 304 302 301 297 298 298 297 293 286 289 294 294 294 294 288 289 306 307 309 311 313 312 312 313 312 314 313 313 313 314 315 317 319 320 321 322 322 324 326 327 327 327 328 330 330 328 327 328 329 330 329 329 329 330 330 331 332 333 333 334 335 335 335 333 332 332 332 331 331 332 333 333 332 331 331 330
304 295 294 295 299 299 301 304 304 304 303 300 301 302 301 296 297 296 295 296 293 292 290 289 287 292 305 308 311 311 313 313 313 312 312 311 312 311 311 312 313 314 316 317 319 319 320 321 323 323 324 325 326 326 329 328 327 328 328 329 330 329 330 330 331 331 333 333 333 334 334 334 333 333 331 331 331 331 331 332 332 331 332 330 330 329
294 298 295 291 291 293 296 300 300 303 301 298 298 301 301 301 301 301 299 298 290 293 292 288 284 289 304 307 309 310 309 309 309 309 309 308 310 310 310 310 312 313 313 314 315 317 319 319 319 320 322 322 324 326 327 328 327 327 327 329 329 329 331 330 331 331 332 333 333 333 333 333 333 332 332 330 329 331 332 332 331 332 331 330 329 328
297 297 295 287 285 283 282 283 286 290 295 299 301 301 299 299 300 299 291 293 287 292 294 290 288 297 304 307 307 308 308 306 307 308 308 307 307 308 308 309 309 310 311 312 313 313 314 316 317 319 321 322 323 325 325 326 323 324 325 326 330 328 330 330 331 330 331 331 330 331 332 333 332 331 332 331 330 330 330 331 331 331 331 329 327 328
297 300 297 295 290 289 289 292 297 297 297 294 298 298 298 299 302 302 299 292 289 292 291 293 295 295 298 302 303 305 305 304 305 305 305 305 308 309 308 307 308 309 310 310 310 310 311 312 312 315 317 319 321 321 323 322 323 325 323 323 328 331 329 329 329 330 330 329 330 329 331 331 331 332 333 332 330 330 329 329 331 330 330 328 327 325
302 296 299 298 296 297 298 296 297 296 294 297 295 296 300 302 303 299 293 291 299 292 289 297 298 297 298 300 302 303 302 302 302 301 302 304 305 307 308 307 307 308 309 309 309 308 308 309 309 310 311 313 314 316 317 319 318 322 323 323 326 328 328 328 327 328 328 329 329 328 327 326 329 333 333 331 330 330 330 331 331 329 329 326 325 323
302 293 300 298 298 298 299 299 299 297 296 296 297 297 298 302 302 296 300 301 300 292 288 297 300 298 298 299 300 301 302 300 300 300 302 303 304 306 308 308 307 307 307 306 305 305 306 306 307 307 308 309 310 311 312 313 314 315 322 324 326 328 327 329 326 326 328 329 328 327 326 326 328 330 331 331 331 331 330 330 329 327 325 324 323 323
300 294 299 298 295 296 298 300 300 297 296 297 297 297 299 300 300 299 300 301 299 297 300 300 298 295 295 297 298 300 303 302 301 302 302 301 302 302 303 304 304 304 304 304 303 303 304 304 304 305 305 306 306 308 310 311 311 312 313 320 326 328 328 331 326 327 327 325 325 325 324 326 328 328 330 327 328 329 329 327 326 325 323 322 323 323
298 292 296 298 293 293 297 300 299 298 298 296 296 297 298 299 299 298 299 298 300 299 299 300 298 294 297 299 299 300 302 302 300 298 298 298 299 300 301 302 302 301 302 302 302 301 302 302 302 302 303 304 304 305 307 308 310 310 311 313 315 316 317 320 325 323 325 325 323 323 323 327 328 325 328 328 328 328 327 324 323 321 321 321 321 322
300 294 301 299 290 289 295 296 295 297 298 296 294 292 294 295 294 296 293 296 294 293 296 297 294 293 295 299 298 298 298 297 296 296 295 296 297 297 297 298 298 299 300 300 300 300 300 300 299 300 301 302 303 304 304 305 306 307 307 310 312 314 315 315 318 319 318 319 319 322 325 325 325 326 327 328 327 327 326 326 324 323 324 324 325 325
298 296 292 293 289 288 292 296 296 296 296 290 287 290 292 294 295 297 297 296 295 296 293 290 293 297 298 299 297 295 295 294 294 294 294 295 296 295 295 296 297 298 299 299 299 298 298 299 299 299 300 300 300 301 303 304 304 304 305 307 309 311 311 311 312 313 315 317 318 319 319 317 316 316 317 320 322 323 322 322 322 322 322 322 325 325
298 296 293 296 288 288 292 293 297 292 283 282 290 295 294 292 293 292 291 293 294 296 294 296 297 299 299 299 295 293 292 292 293 294 295 295 295 295 295 296 297 298 299 299 298 298 298 298 299 300 300 300 301 302 303 303 304 305 306 306 307 308 309 309 309 310 311 312 313 314 315 317 316 315 315 316 316 317 317 318 318 320 322 323 324 324
296 296 292 294 288 288 290 289 287 282 283 288 296 296 297 296 295 293 294 294 294 295 296 295 295 295 295 294 293 292 293 293 294 293 294 296 296 295 294 295 296 296 296 296 296 297 297 298 298 299 300 301 301 302 302 302 303 303 303 304 304 305 305 306 305 305 307 308 309 310 310 311 311 310 311 313 314 314 313 313 314 314 316 318 320 321
293 293 293 290 291 292 288 287 280 280 287 292 294 296 297 298 295 295 292 292 292 293 294 293 293 294 293 293 293 293 293 293 293 294 294 295 296 296 295 294 295 296 296 296 296 297 297 298 298 298 299 301 302 302 302 301 302 302 301 303 302 303 303 303 304 304 305 304 305 307 308 308 309 310 309 310 311 310 310 311 312 312 315 314 314 313
302 298 294 289 291 286 288 286 284 288 288 289 289 290 290 288 290 289 285 286 291 293 293 292 292 291 292 292 293 294 295 295 291 291 294 295 296 297 297 297 297 297 297 298 298 298 299 299 299 299 300 300 301 301 300 302 302 302 301 300 301 301 301 301 301 302 303 303 304 305 306 306 307 309 309 310 310 309 309 309 309 311 310 309 309 309
295 296 293 290 289 291 287 283 283 283 281 283 289 293 296 295 294 294 291 287 292 293 294 293 291 291 290 291 292 294 296 293 287 287 292 295 296 296 298 298 298 298 298 299 299 299 299 300 300 300 299 299 298 299 301 301 301 301 300 299 299 299 299 299 299 301 302 303 304 305 305 305 305 304 305 306 305 305 305 306 307 307 308 308 307 306
300 301 295 291 289 289 286 284 284 282 281 287 289 292 295 296 294 294 289 284 290 293 294 294 292 292 292 292 293 295 293 289 286 287 292 295 296 297 296 297 298 298 298 298 298 297 297 298 299 300 300 300 298 299 300 300 300 298 297 298 298 298 297 298 298 299 300 301 303 304 304 304 304 304 304 304 304 305 305 305 305 306 308 310 309 307
297 294 293 289 287 288 287 284 280 284 282 287 291 293 295 296 296 291 283 282 288 293 294 294 292 292 293 294 295 292 289 288 286 288 293 294 295 297 297 297 297 297 298 298 297 297 297 298 297 298 298 298 299 300 299 299 298 297 296 296 296 296 296 297 299 300 300 300 302 303 302 302 303 303 303 303 303 303 304 305 306 306 306 308 306 306
290 290 291 288 289 287 285 284 285 284 289 291 292 295 297 297 293 285 281 284 293 293 295 294 293 294 294 293 293 287 287 290 289 291 293 294 294 295 297 298 298 298 297 298 298 298 298 297 296 296 297 298 298 300 300 299 298 296 296 295 295 295 296 297 298 299 300 300 299 299 299 300 300 300 301 302 303 303 303 304 304 304 304 305 306 307
288 288 288 289 287 286 288 285 283 284 288 293 296 297 297 292 283 282 288 295 295 293 294 294 293 293 293 291 290 289 290 292 293 293 293 293 294 295 296 297 298 298 298 298 298 298 297 297 297 297 297 297 297 298 298 298 297 297 297 296 294 295 298 299 298 299 300 299 299 299 299 299 300 301 301 302 303 303 302 303 304 304 304 304 305 305
284 285 285 285 285 289 288 284 284 279 287 295 295 295 295 287 285 291 293 294 294 293 293 292 292 291 292 290 291 291 292 292 292 293 293 294 294 293 295 296 297 297 297 296 296 296 296 296 296 296 296 297 297 297 297 297 295 296 296 296 296 298 299 299 300 299 299 299 299 300 300 300 300 300 301 301 301 301 302 303 303 303 304 304 305 305
291 285 286 286 287 284 283 280 279 285 290 295 295 287 290 292 294 295 294 292 294 294 293 292 292 293 292 292 291 291 293 292 292 293 293 294 295 295 295 295 296 298 298 297 297 297 297 296 296 295 296 297 297 297 297 296 294 294 294 294 296 298 300 300 300 300 299 299 298 299 300 300 300 301 302 302 302 302 302 303 303 303 304 303 303 303
291 287 288 284 289 286 283 284 289 292 293 295 295 294 295 296 297 297 296 294 293 293 295 293 292 293 293 293 292 292 292 293 292 293 293 293 294 294 295 296 296 296 297 296 295 296 296 296 295 295 295 296 298 298 298 297 296 295 294 296 298 297 298 299 299 300 299 299 299 299 300 301 301 301 301 302 303 302 302 303 304 303 304 305 304 304
294 294 295 291 288 292 293 293 294 294 294 295 297 298 297 298 298 298 296 293 294 294 295 293 294 293 294 294 292 292 292 293 293 294 294 294 294 295 296 296 297 297 298 298 297 297 296 296 296 296 296 296 297 297 297 297 297 296 297 298 299 299 299 299 298 298 298 298 298 299 300 301 301 302 302 303 302 302 303 303 302 303 304 304 303 303
295 296 294 289 292 289 282 293 292 293 295 296 296 297 299 299 298 299 297 296 295 295 295 295 295 295 294 294 293 292 292 293 293 294 295 295 296 296 297 296 296 297 297 296 297 297 297 296 296 296 296 296 297 297 297 297 297 297 298 298 299 299 299 298 299 298 298 299 299 299 299 299 300 301 301 303 303 303 303 303 303 303 301 302 303 303
289 298 292 291 290 287 286 291 293 295 295 296 296 295 295 297 298 299 299 298 298 298 297 296 296 295 296 294 294 293 292 293 293 293 294 294 295 296 296 296 297 297 298 298 299 299 297 297 296 296 296 296 297 298 298 298 298 299 299 300 300 299 299 298 298 299 298 298 298 298 299 299 294 298 301 300 298 298 299 300 302 303 301 300 300 301
294 296 288 292 289 290 293 294 294 294 294 295 296 297 297 297 297 298 298 298 298 297 296 297 297 296 296 295 296 295 294 293 294 294 294 294 295 295 296 296 297 297 297 297 298 298 297 297 296 297 297 296 298 298 298 298 299 299 300 300 301 301 299 298 297 299 299 299 299 299 299 300 300 300 301 300 299 299 299 299 300 301 302 299 299 298
294 289 293 291 287 286 287 290 294 288 287 292 295 296 297 298 298 297 297 296 297 297 297 296 297 298 298 297 297 296 295 295 295 295 294 295 295 295 296 296 296 297 297 298 298 298 297 297 297 297 297 298 299 299 299 299 299 300 300 301 301 301 300 300 299 299 298 298 298 299 299 300 300 301 300 301 301 299 297 289 290 296 299 298 290 287
292 295 294 289 288 286 292 294 296 295 294 295 296 297 297 298 297 296 296 296 297 297 298 296 295 296 296 297 297 296 295 295 295 295 293 293 293 294 295 296 296 296 296 297 297 297 297 298 297 297 297 298 299 299 299 299 300 300 300 301 301 301 301 300 299 299 299 298 297 296 299 299 299 300 300 300 301 301 297 298 295 289 290 292 291 290
Wind_Speed
8 9 10 10 10 12 14 14 14 16 7 7 7 7 7 7 10 1 2 3 2 7 9 10 10 12 12 12 11 12 10 11 11 12 12 12 13 12 15 8 9 10 13 10 11 12 12 10 9 10 11 11 12 13 12 13 14 13 12 13 14 12 10 10 11 11 11 10 8 6 8 8 7 6 4 3 3 3 2 5 8 7 6 7 6 6
9 10 11 12 12 11 12 13 13 14 3 9 9 9 10 11 9 12 7 5 5 6 8 9 11 11 11 11 12 12 15 10 11 13 14 14 16 15 12 17 16 15 11 11 10 11 12 11 10 10 11 12 14 13 14 14 13 12 14 13 12 12 11 12 11 11 11 9 7 7 7 8 8 3 6 4 4 5 4 5 6 7 6 6 6 6
8 11 11 11 11 9 5 7 8 7 8 8 10 9 10 10 11 6 5 5 4 6 9 12 11 10 11 11 12 13 14 12 10 12 13 15 15 14 13 12 13 12 11 10 10 11 12 14 13 11 11 12 14 14 15 14 14 11 9 9 11 10 11 12 12 11 11 7 2 5 7 7 5 4 6 9 13 9 6 5 6 6 6 7 6 7
9 10 15 12 8 4 7 5 6 8 8 9 10 10 10 10 13 12 5 4 5 6 8 6 10 10 11 12 14 14 13 14 13 14 15 14 14 14 14 13 12 13 12 11 10 12 13 14 13 12 12 13 13 13 13 13 14 11 10 10 12 12 12 11 11 11 8 9 8 4 6 4 3 5 6 6 8 11 10 7 7 7 6 6 6 7
9 2 5 14 5 8 9 9 9 7 9 11 12 11 10 12 14 10 4 7 5 7 10 12 12 12 12 14 14 15 16 16 14 14 14 14 16 15 11 12 12 14 14 12 11 13 15 15 16 14 14 13 13 13 14 13 11 10 13 14 15 13 14 12 12 11 10 10 12 6 5 1 3 5 5 4 3 6 7 8 7 7 7 7 6 7
14 2 1 1 6 8 9 9 10 9 9 9 13 14 14 12 15 8 7 12 9 10 12 14 10 12 12 16 17 14 14 15 15 15 15 15 13 12 12 13 13 13 14 17 17 16 15 17 15 15 14 14 12 13 13 12 11 11 12 14 14 13 13 12 13 13 11 11 10 7 8 6 5 6 7 4 7 8 7 8 7 7 7 7 6 6
11 10 8 9 9 9 11 10 10 11 9 9 8 15 16 15 12 12 13 10 9 10 6 7 9 8 8 13 9 7 11 14 14 14 15 14 13 14 14 13 14 14 14 16 15 14 14 16 15 15 14 14 14 12 11 12 12 13 12 13 14 13 12 12 13 15 9 10 9 11 9 9 9 9 4 4 6 7 7 6 7 6 6 6 6 6
10 3 5 7 10 10 10 11 10 10 10 10 7 1 5 8 11 10 11 11 9 12 3 6 9 11 10 10 9 10 12 13 10 12 11 11 10 9 10 11 13 15 15 14 15 13 11 12 13 14 14 12 11 11 10 11 12 14 14 15 15 13 12 13 14 13 11 11 10 10 9 8 6 2 8 9 8 7 7 7 8 7 6 7 6 5
13 11 7 9 10 9 10 9 9 13 10 9 4 1 8 10 10 10 9 9 11 9 12 10 13 12 11 11 15 10 11 11 10 13 12 5 3 4 9 10 11 13 13 13 13 11 10 11 12 6 7 12 12 4 10 10 12 13 14 14 15 14 14 14 16 14 13 12 12 12 10 11 8 10 9 10 8 7 7 8 7 7 7 7 6 6
8 10 11 10 9 9 9 8 7 8 10 12 8 6 7 7 8 9 10 11 10 10 12 13 11 11 11 9 11 9 8 10 14 6 7 5 5 5 8 11 13 12 10 12 10 9 12 11 7 11 11 11 15 10 9 10 9 11 12 15 16 16 13 12 15 14 13 11 11 11 10 12 7 5 7 8 9 8 8 8 8 7 7 7 6 6
2 5 5 7 10 10 9 10 9 9 11 3 5 6 10 11 11 10 10 10 10 11 13 14 15 13 11 7 9 7 1 6 6 8 2 0 4 6 9 9 14 13 9 13 13 15 14 14 10 9 9 12 10 5 8 10 9 9 11 13 15 14 11 12 12 13 10 10 10 8 5 5 10 8 6 5 6 7 8 9 8 7 6 6 6 5
10 8 8 8 10 9 10 11 13 12 10 11 8 9 8 10 10 9 9 9 9 11 12 15 15 13 13 6 4 8 5 7 4 3 4 5 4 7 6 10 13 11 9 10 10 10 11 16 10 9 12 11 12 9 5 7 9 5 6 8 12 13 11 11 10 12 10 9 6 7 7 2 4 9 8 7 10 8 10 9 8 7 6 5 5 5
12 10 8 10 10 14 9 10 7 8 9 10 9 9 10 7 5 8 8 10 10 8 9 8 7 9 10 9 4 7 10 5 8 8 6 3 2 8 10 4 4 2 5 3 1 6 8 12 13 14 14 12 13 15 12 10 9 11 8 3 10 13 10 10 10 9 11 9 8 6 7 10 8 12 14 13 13 12 11 9 8 8 6 6 6 6
10 12 13 11 11 12 11 11 9 10 11 12 11 10 11 9 9 8 8 6 9 10 12 6 5 11 7 3 4 6 5 5 5 8 10 9 8 6 1 1 3 3 7 6 7 9 8 10 11 12 13 15 15 15 12 11 7 6 12 13 11 9 6 2 3 7 9 11 10 9 8 8 10 11 10 10 10 10 9 8 8 8 7 7 7 7
8 10 12 13 10 14 14 12 9 7 10 12 11 11 10 9 7 7 8 7 8 8 7 8 7 6 12 3 7 6 8 10 8 5 4 5 3 3 3 1 3 6 3 5 8 5 6 8 11 11 11 12 13 15 14 12 9 7 8 8 5 4 7 6 2 8 8 10 11 10 7 4 7 8 8 7 8 8 9 8 8 7 7 6 6 7
13 8 7 17 9 13 14 14 13 11 9 10 10 10 10 9 5 9 3 6 5 4 7 7 7 5 2 9 9 6 7 5 4 3 1 5 3 3 3 3 2 2 7 4 4 5 4 6 6 7 8 10 11 14 13 12 11 9 5 8 10 8 5 3 4 5 10 9 7 9 11 12 12 7 7 7 7 7 7 8 7 6 6 6 6 6
9 9 5 8 13 10 14 13 13 11 8 6 10 12 11 7 9 6 6 11 7 7 7 4 7 8 6 9 10 4 10 6 2 5 5 5 5 4 6 5 5 3 3 4 4 3 5 5 6 7 8 8 9 11 11 13 10 10 7 11 9 6 6 7 4 4 8 8 8 8 8 10 9 9 9 8 9 8 8 8 7 6 6 6 5 6
7 4 7 9 13 10 10 13 14 14 11 6 8 7 8 9 9 6 6 2 6 9 7 9 11 7 11 3 2 7 4 5 6 4 6 6 7 6 6 5 4 4 3 2 3 2 4 4 4 3 4 5 6 8 9 10 8 8 10 13 15 15 16 13 12 11 6 5 4 5 9 9 8 9 10 9 10 8 8 8 7 7 6 6 5 6
6 8 7 10 11 12 11 8 11 14 16 12 7 2 9 7 9 8 4 9 8 7 5 10 11 6 6 4 2 3 2 2 1 5 5 6 5 6 4 4 5 4 4 4 2 0 2 4 5 4 3 4 5 7 7 4 9 10 9 12 17 18 17 16 13 11 9 8 6 7 9 11 9 8 8 9 10 9 9 9 8 7 6 6 6 6
5 7 6 10 12 10 10 9 10 10 13 15 12 7 7 8 6 5 6 8 7 9 8 8 10 1 3 4 4 2 6 3 4 4 6 4 5 5 5 6 5 5 5 4 5 3 4 3 1 4 5 6 6 6 7 10 11 14 12 13 11 11 12 15 14 12 10 9 8 7 8 8 9 9 9 9 10 10 9 9 9 8 7 7 6 5
5 4 7 8 10 8 10 10 11 11 11 13 12 10 8 8 5 8 4 7 6 5 7 5 6 3 3 4 3 5 4 5 4 5 4 5 6 7 8 6 6 6 7 6 5 5 5 4 1 1 4 6 5 6 10 11 11 11 10 12 11 13 16 16 17 15 13 10 9 9 8 8 9 9 9 10 11 10 9 8 8 8 7 6 6 6
4 6 8 4 8 11 10 11 13 13 12 12 11 11 11 10 10 10 7 7 8 6 5 6 1 3 5 5 2 5 3 4 5 6 6 8 8 7 7 9 11 9 8 8 8 7 5 4 3 0 1 2 6 7 9 10 10 12 12 12 11 14 16 18 17 15 13 11 11 12 10 10 9 9 9 11 11 9 9 9 8 8 8 7 6 7
5 5 7 6 9 8 4 12 7 5 6 9 10 12 12 11 10 8 8 4 10 9 10 10 2 4 1 2 2 4 5 5 6 6 7 8 8 9 9 10 10 10 10 9 8 9 11 11 9 7 2 2 4 6 7 9 9 10 11 12 11 12 15 18 19 16 13 11 10 10 9 9 9 10 11 12 11 10 9 7 8 8 8 7 6 6
4 4 9 9 9 3 11 5 3 7 7 9 9 8 6 7 10 9 6 6 7 5 5 6 7 3 4 2 4 3 7 7 9 11 9 8 7 7 8 9 10 10 11 10 10 9 7 8 9 8 6 4 3 6 6 7 9 8 10 11 11 13 14 17 17 17 14 13 12 11 10 9 10 11 11 11 10 11 10 9 8 8 8 8 6 6
4 6 10 7 8 9 7 7 10 9 8 9 9 8 10 10 11 6 3 6 6 8 7 4 5 1 4 3 5 7 6 7 9 10 9 8 7 7 7 8 8 9 9 9 9 9 9 10 9 7 5 5 6 2 2 5 1 4 4 5 9 12 15 17 15 16 16 15 14 12 12 13 11 10 9 10 10 11 10 11 9 8 8 8 7 7
7 3 3 9 9 7 8 8 5 3 5 7 10 7 10 9 13 9 5 7 7 11 13 10 1 5 3 2 6 6 6 9 9 8 9 8 7 7 8 7 8 8 8 9 10 11 11 10 9 9 9 5 5 5 5 5 5 7 1 5 9 12 15 16 13 14 16 16 15 12 12 10 10 8 8 8 9 10 11 9 9 9 8 8 7 7
1 2 4 6 6 4 2 1 5 7 7 5 9 1 6 9 10 5 3 6 8 1 1 8 5 5 3 0 3 8 8 9 9 8 8 7 7 8 8 8 8 8 8 10 10 9 10 11 12 11 11 10 9 8 6 8 5 5 6 3 6 11 13 13 13 14 15 15 12 11 9 8 7 6 7 8 9 9 9 10 9 9 9 8 7 7
6 7 5 6 11 9 8 4 4 5 8 10 7 7 6 4 2 3 7 5 5 5 5 8 8 7 5 3 7 8 9 8 8 7 7 7 7 7 7 7 8 8 9 9 10 11 11 11 11 12 11 11 11 10 9 7 7 2 3 3 4 7 7 9 12 13 14 13 12 11 10 7 1 2 8 8 9 11 11 10 9 9 8 8 8 7
4 4 4 5 6 15 11 5 5 3 6 1 3 3 5 8 8 5 5 6 5 4 3 3 6 11 7 7 7 9 8 8 7 8 8 7 7 7 6 7 9 9 10 10 11 10 11 11 11 12 12 11 11 11 11 9 7 10 3 2 2 3 2 3 12 12 11 12 12 14 12 10 6 1 7 8 9 10 10 10 9 9 9 8 7 6
2 3 5 3 5 10 11 6 7 8 8 1 3 7 6 7 8 7 7 10 8 3 8 9 12 10 7 7 8 8 7 7 7 6 7 8 9 8 8 9 9 10 10 10 10 10 10 11 11 12 13 13 13 12 12 9 8 8 9 8 2 4 3 3 8 10 11 10 11 10 9 9 6 5 7 9 8 9 10 10 9 8 9 8 7 7
3 1 4 3 3 7 6 3 5 7 5 2 7 10 10 8 6 8 9 13 11 3 5 7 9 8 6 6 7 7 6 6 7 9 9 9 9 9 9 10 10 10 10 10 10 10 10 11 12 12 13 13 13 13 11 10 8 8 9 8 10 10 9 9 9 11 7 8 8 8 10 9 9 11 9 10 10 9 10 10 9 9 9 8 7 7
4 2 1 0 3 1 6 5 5 3 4 5 9 11 11 9 7 9 7 9 10 9 7 6 5 4 4 5 7 7 8 9 9 9 9 8 9 10 10 11 10 10 10 10 10 10 11 12 13 13 13 13 12 12 11 10 10 8 8 8 9 9 11 12 13 12 11 10 9 7 7 8 10 9 9 11 11 11 10 9 9 9 8 7 6 5
3 4 3 1 3 2 4 9 4 7 6 4 7 9 7 7 6 4 9 12 11 11 7 7 6 6 5 4 6 7 8 9 9 9 8 8 9 10 10 10 10 10 10 10 11 11 11 11 12 13 12 12 12 12 12 11 9 10 8 9 9 9 11 12 12 13 12 12 11 9 10 12 11 10 9 10 9 7 8 9 10 9 8 8 6 6
1 4 2 3 2 2 3 5 5 6 8 2 4 5 5 6 7 7 8 11 11 9 5 6 7 7 6 6 8 7 8 9 9 9 9 8 7 9 9 9 9 10 10 11 11 11 11 11 11 11 12 13 13 14 12 11 11 9 9 9 10 11 10 13 12 12 11 11 10 10 11 10 11 10 9 9 8 9 9 9 9 8 7 7 7 6
3 3 1 2 1 1 3 1 4 10 2 3 3 8 5 4 7 6 9 13 12 11 9 6 8 8 9 8 8 9 10 10 11 11 11 10 9 9 9 10 10 10 11 12 12 12 12 12 13 13 12 12 12 12 12 11 11 9 11 10 11 11 12 12 12 12 11 10 10 11 10 11 10 9 7 7 7 8 8 9 8 8 7 7 7 7
2 3 2 1 1 2 1 3 4 2 3 6 3 10 9 1 7 2 4 12 13 12 10 7 7 7 7 7 8 8 9 10 11 13 12 11 11 9 9 9 10 11 12 12 13 13 13 14 13 14 13 11 10 10 11 11 8 9 11 9 11 11 12 13 13 12 10 11 11 11 10 10 9 8 8 8 9 9 9 9 9 8 6 7 6 6
5 3 3 2 4 3 1 1 4 7 6 8 5 9 9 5 7 6 3 6 11 10 10 6 5 6 6 6 6 6 7 8 9 10 12 12 10 10 10 10 11 11 11 10 11 12 12 13 13 14 13 12 12 11 10 8 8 10 11 12 12 10 12 13 12 11 11 11 10 11 10 8 8 8 8 8 9 9 8 7 7 6 5 7 6 6
3 3 1 5 3 4 3 6 6 6 3 5 6 6 6 4 4 4 2 3 10 10 8 6 5 4 4 4 4 3 1 1 6 7 10 11 10 10 10 10 11 11 11 9 9 9 10 10 11 11 12 13 14 12 10 11 12 11 11 12 11 12 13 12 11 10 10 10 9 9 8 9 9 8 8 9 9 8 7 7 6 6 4 6 6 6
3 3 1 2 2 3 5 5 2 3 5 4 7 6 6 3 2 2 2 3 8 10 9 6 5 4 4 5 1 5 4 1 4 5 8 10 11 10 10 10 11 11 10 10 10 9 10 10 10 11 12 13 13 12 12 11 12 12 13 12 12 12 12 12 10 10 10 9 9 8 9 9 9 8 8 7 8 7 7 6 6 4 4 3 4 5
4 4 3 3 4 4 5 2 3 4 4 8 9 7 6 2 3 2 4 4 7 9 7 6 5 3 3 4 8 7 7 1 4 4 8 9 10 11 11 11 11 12 11 9 10 9 9 10 12 13 14 13 11 10 11 10 11 13 12 12 12 13 13 11 9 9 10 10 9 9 9 8 8 8 7 7 6 7 7 6 4 4 3 1 3 4
1 1 2 4 1 5 8 7 5 4 3 9 10 8 5 2 3 3 3 5 6 7 7 4 4 5 6 7 6 6 7 8 8 6 7 7 9 11 12 11 11 11 10 9 9 9 9 10 11 12 13 11 11 10 9 9 11 12 11 12 13 13 11 10 10 10 10 10 10 10 10 9 9 8 8 6 6 6 6 6 5 5 4 4 4 4
3 2 0 2 3 3 5 8 7 5 3 11 9 5 5 4 2 3 2 4 5 7 8 9 9 8 8 9 8 9 9 10 10 9 9 10 10 9 9 9 8 8 7 6 6 7 7 9 11 12 12 12 12 11 10 11 12 11 11 12 13 11 8 9 10 9 9 10 9 9 9 8 8 7 6 7 7 6 6 6 5 4 3 3 4 4
3 3 3 3 3 1 6 7 4 4 6 15 13 2 12 2 3 1 3 6 7 7 8 9 9 10 11 11 12 12 11 10 10 9 9 9 9 9 8 8 9 9 9 10 9 10 9 9 10 11 10 9 10 10 10 12 13 12 11 13 10 6 7 7 8 9 10 9 8 7 7 7 8 7 6 6 6 6 5 4 4 4 3 3 3 3
8 2 4 3 5 4 7 6 5 2 5 10 10 5 6 6 2 1 1 6 6 6 8 8 9 10 11 11 11 11 12 12 11 10 9 9 9 9 9 9 9 9 8 9 8 8 9 9 9 9 10 9 9 9 9 10 10 10 11 11 8 8 7 7 7 6 7 7 7 7 6 6 6 5 5 5 4 5 5 4 3 3 3 2 2 2
9 8 6 8 8 5 6 5 3 3 6 8 9 9 7 6 6 8 8 7 7 7 8 9 11 11 12 13 13 13 12 10 10 9 9 8 8 8 8 7 7 9 8 8 9 9 9 9 10 10 10 9 10 8 8 8 9 9 9 6 5 5 5 5 5 5 6 7 7 6 5 5 5 4 4 4 4 4 4 4 3 3 2 2 2 2
9 12 11 12 14 16 14 11 9 10 10 10 10 9 10 10 9 9 9 9 9 9 8 9 10 11 11 10 11 11 10 9 8 7 7 6 6 5 5 6 7 6 6 6 6 8 8 8 9 9 9 10 10 9 8 8 8 9 7 5 6 5 5 5 5 5 4 4 4 6 5 3 4 4 3 3 4 4 4 4 4 4 3 3 3 3
7 5 7 7 9 6 7 8 11 12 12 13 13 13 13 12 11 10 11 11 11 11 11 11 11 11 11 10 11 11 10 9 9 8 6 4 4 4 4 5 5 5 5 5 4 4 6 6 7 8 8 9 8 7 7 8 7 7 6 6 5 5 6 5 5 4 4 4 3 3 5 6 5 4 5 5 5 5 5 4 3 3 4 4 4 2
11 11 13 12 13 11 10 10 12 12 12 11 9 10 12 13 13 13 11 12 12 12 12 12 11 11 10 10 10 10 10 9 8 7 7 7 6 6 6 5 5 4 3 3 3 3 4 6 7 7 7 7 7 7 7 6 6 6 5 5 6 5 5 5 5 4 4 4 4 4 4 4 5 4 5 7 8 8 8 7 7 6 7 7 7 6
6 5 8 10 12 13 14 12 12 13 13 12 12 12 11 11 11 13 13 12 12 12 11 10 9 9 9 10 9 9 9 8 8 7 7 7 6 5 4 4 3 3 2 1 2 3 5 5 6 6 7 6 6 6 6 7 6 7 6 6 5 5 6 5 5 5 6 5 4 4 3 3 4 4 3 6 6 7 6 6 6 6 6 8 7 6
9 11 12 10 9 8 8 8 6 6 7 9 11 11 11 11 11 11 11 11 11 11 10 10 10 9 9 8 8 7 8 7 7 6 6 5 5 4 4 2 2 3 2 1 1 2 3 3 4 6 5 5 5 6 6 6 6 6 6 5 4 4 4 4 3 5 6 5 5 5 4 4 3 4 4 3 5 6 5 5 7 5 4 5 5 6
7 2 3 5 6 7 7 7 8 10 10 9 9 9 9 9 9 10 10 9 9 8 9 9 9 8 7 7 6 6 6 6 6 6 5 3 3 2 3 3 2 1 0 1 1 1 1 2 2 3 5 4 5 5 5 5 5 5 5 6 5 5 5 4 3 4 4 4 5 5 5 3 3 3 3 2 3 3 5 6 4 5 7 10 6 5
Wind_Direction
169 218 206 214 223 214 217 228 238 245 326 302 299 298 273 268 264 311 355 95 159 257 249 262 258 259 270 275 268 257 211 201 230 237 228 228 228 234 139 187 187 224 224 196 193 189 194 193 196 180 179 174 173 176 164 167 171 168 172 169 164 167 168 170 174 183 182 171 161 170 185 187 185 161 156 162 128 243 293 194 161 158 168 154 170 167
207 226 225 224 228 234 221 221 242 266 352 257 267 259 250 241 249 250 191 142 233 249 256 248 254 254 258 259 256 255 265 207 214 231 234 232 232 231 188 175 193 207 214 193 201 182 185 193 187 171 177 171 174 176 167 173 174 178 179 181 169 168 172 177 184 184 186 168 171 161 197 184 175 164 154 171 125 231 211 196 153 166 171 163 170 174
211 230 234 233 233 237 274 253 227 244 238 247 255 257 257 250 257 154 159 160 249 231 254 249 253 251 244 245 249 250 250 251 215 232 237 229 233 233 225 197 195 196 190 195 200 192 188 189 185 181 177 174 174 163 173 176 173 169 175 179 179 177 177 185 187 187 187 135 66 208 178 176 161 188 190 170 182 170 198 158 174 171 179 172 176 178
223 224 232 237 221 201 220 236 227 227 245 252 241 241 247 256 233 235 195 201 189 248 280 285 279 277 273 260 261 260 252 244 230 222 228 236 240 237 227 215 195 200 182 180 204 211 187 188 182 177 178 172 171 161 170 175 181 180 177 181 188 182 188 189 190 189 157 114 179 228 145 189 183 189 201 233 153 175 171 169 176 174 178 174 184 174
235 297 177 210 174 194 214 214 224 228 235 223 245 256 252 237 251 258 222 205 197 237 247 265 267 262 252 250 246 236 232 244 236 224 223 226 230 234 234 233 203 208 171 187 194 216 202 192 189 186 177 167 164 168 169 178 184 187 187 187 191 187 190 190 187 184 153 147 160 164 119 98 0 3 304 172 217 164 174 168 176 172 175 179 180 176
254 221 94 31 178 206 222 222 215 232 240 230 222 240 254 268 286 277 270 270 246 248 229 232 263 254 245 242 242 234 215 214 225 231 228 227 226 233 229 225 224 208 185 183 194 206 211 200 194 185 174 167 160 166 167 179 184 187 188 190 189 188 189 188 183 183 167 160 160 148 159 175 146 156 204 216 181 183 156 186 163 165 178 177 173 172
247 180 179 211 221 226 226 228 208 212 243 246 221 217 228 253 267 266 260 263 261 260 301 218 247 270 266 263 237 244 258 216 203 221 230 225 223 225 229 221 222 217 198 181 194 192 208 214 196 185 181 171 159 160 164 174 183 188 191 191 190 187 185 182 184 186 156 155 156 174 173 163 162 171 170 211 193 184 168 164 166 158 174 172 168 172
237 223 185 211 224 228 218 223 215 207 227 237 255 172 267 247 247 247 259 256 263 275 191 205 250 274 270 267 250 208 236 258 219 216 224 235 236 233 230 224 220 222 215 184 185 196 191 219 204 192 180 169 160 152 163 181 186 187 194 192 194 189 185 184 188 183 171 166 171 174 169 169 155 151 170 211 186 174 166 161 161 160 167 169 167 167
196 211 203 209 218 221 223 224 217 204 231 244 220 292 246 249 247 255 248 246 252 256 264 240 225 246 256 263 275 241 210 219 250 233 205 176 261 332 324 304 269 239 219 182 170 184 209 192 204 123 72 42 353 309 170 181 195 192 198 197 192 191 190 189 188 183 179 174 177 173 180 169 164 187 187 176 177 168 163 163 163 162 163 163 160 164
180 218 201 224 213 218 229 214 219 189 226 244 263 218 265 268 268 257 251 254 249 248 253 255 252 260 261 262 250 254 228 219 235 74 65 26 14 333 308 292 274 262 221 151 172 182 196 179 125 132 139 138 183 210 195 186 191 198 201 202 199 200 192 187 186 180 176 167 167 172 175 169 150 148 181 176 165 171 161 163 164 162 160 153 152 156
23 129 346 223 216 230 220 222 227 211 227 297 332 255 224 234 239 234 246 261 262 243 241 249 257 254 266 252 266 267 16 48 12 74 74 45 281 267 247 270 263 247 219 153 176 189 196 127 157 151 166 183 180 201 188 172 188 202 209 205 205 203 197 185 181 176 160 168 168 155 158 163 147 179 171 176 154 160 176 160 164 162 154 156 153 151
163 174 199 215 242 236 238 231 208 229 218 225 227 232 241 228 228 238 235 233 247 251 251 247 249 244 256 238 242 96 58 39 57 105 41 37 317 287 234 204 230 240 166 179 177 174 172 122 161 177 184 189 177 202 179 167 170 166 224 219 212 205 204 200 187 167 166 178 168 156 129 119 160 204 169 175 161 184 166 158 157 154 149 151 140 150
227 210 212 204 202 240 196 246 192 207 218 225 224 235 237 233 222 230 219 224 225 245 250 275 260 237 237 262 44 46 48 23 32 22 11 343 299 246 237 187 223 62 57 94 163 188 156 146 161 170 176 179 186 187 179 186 180 163 165 216 247 226 204 206 188 169 159 139 151 162 151 162 215 202 177 169 172 171 162 160 155 152 157 152 154 163
223 220 197 205 189 205 226 210 197 194 204 215 220 220 229 230 219 233 238 242 241 230 258 232 243 261 290 119 100 106 83 101 85 64 14 5 323 290 303 217 124 138 141 172 215 198 163 148 165 172 175 176 182 184 179 185 200 175 166 176 205 227 216 174 171 153 133 139 166 185 171 173 199 216 175 165 163 160 154 157 157 160 162 163 160 160
216 210 212 204 202 178 215 229 218 217 194 214 223 228 232 239 230 229 239 246 246 264 222 213 232 248 245 68 59 58 80 35 46 57 149 196 159 294 350 87 102 160 163 192 198 143 138 152 171 174 172 187 191 185 179 184 191 195 167 175 147 196 230 177 224 128 134 159 177 180 151 175 258 204 165 160 159 155 155 158 158 164 158 161 159 158
238 240 206 197 229 179 210 215 245 242 225 203 218 235 239 234 237 272 278 296 326 292 247 186 243 249 322 146 137 103 74 102 111 149 121 81 63 40 84 79 81 90 139 190 130 136 164 170 160 172 186 205 200 182 177 178 181 168 125 113 161 172 93 121 199 171 175 182 179 180 161 181 217 185 167 158 155 155 151 152 158 155 156 151 152 147
216 232 201 185 215 215 207 211 220 241 238 183 209 217 227 231 239 234 250 263 251 264 262 279 223 239 133 64 58 89 123 133 146 92 90 73 75 82 71 74 89 96 116 155 176 152 160 176 180 188 204 205 192 188 183 182 163 107 125 169 153 150 135 107 107 178 183 176 175 191 169 178 180 177 163 154 153 150 148 150 156 150 153 141 149 141
263 247 195 198 196 215 235 210 217 212 246 255 230 225 227 238 256 251 265 228 225 245 246 234 249 239 233 164 289 69 22 56 89 105 78 72 74 72 50 38 37 43 83 127 118 156 168 186 189 204 212 212 184 176 186 177 144 143 181 162 153 150 149 153 154 165 224 182 187 158 174 167 186 169 163 153 149 148 150 154 153 147 147 147 144 144
243 236 200 209 231 197 209 236 223 215 212 239 229 211 246 188 218 215 232 231 244 237 253 245 242 256 41 87 176 77 88 104 83 79 75 76 75 92 110 94 66 46 26 25 40 75 245 219 202 217 214 204 187 180 157 139 122 172 185 176 162 158 161 166 160 162 167 154 139 208 187 172 168 162 151 149 149 154 157 157 147 147 145 139 137 149
208 246 212 206 228 173 187 202 219 204 200 230 245 243 238 281 268 239 210 247 240 243 236 254 252 227 61 67 113 124 114 157 130 116 86 91 88 92 95 85 72 48 29 31 13 10 336 317 259 201 205 211 191 175 135 132 146 164 168 172 174 165 154 148 152 160 161 150 150 159 176 165 159 159 153 158 157 160 155 153 147 149 147 141 147 146
230 223 246 184 202 176 206 194 221 208 201 198 220 234 216 223 230 249 241 243 258 282 265 252 231 105 39 27 72 99 102 111 119 114 109 83 65 62 52 50 48 39 25 11 1 356 349 331 333 252 223 209 173 144 135 138 149 171 174 181 183 170 160 152 156 162 161 152 155 156 166 170 162 162 162 159 162 161 154 150 154 153 143 147 147 152
237 212 230 256 231 203 221 193 226 220 212 208 214 222 228 225 217 222 231 206 220 240 258 258 239 319 332 312 60 83 73 80 67 95 105 85 69 60 47 37 36 41 36 27 9 4 343 336 341 98 133 169 150 154 161 157 162 177 187 184 183 176 166 159 156 160 162 158 158 160 171 170 157 165 163 163 158 162 155 156 156 148 149 154 151 165
335 269 266 210 228 233 318 279 209 265 285 254 223 218 216 233 243 250 261 243 243 231 289 281 240 142 140 167 100 75 76 76 85 95 90 73 63 44 35 27 30 32 30 25 31 30 19 19 8 352 2 180 168 158 168 159 171 187 192 186 191 187 174 165 158 156 158 154 148 154 164 163 158 167 163 160 162 166 157 156 154 158 154 156 161 172
230 239 225 249 233 274 244 295 284 251 260 251 243 269 245 239 245 250 231 266 276 276 269 301 256 121 139 66 77 92 73 68 58 47 56 65 51 41 30 25 30 28 22 15 14 16 24 27 17 10 2 347 277 169 184 189 182 184 196 195 196 192 177 166 161 159 151 151 155 152 156 162 165 167 163 165 161 166 164 161 163 164 158 159 172 169
222 216 246 232 236 202 212 282 244 219 221 239 245 232 265 249 238 227 273 22 291 267 269 230 279 109 106 118 85 83 82 73 63 54 50 47 35 40 38 31 31 29 27 19 14 13 17 20 21 14 4 14 336 296 217 230 190 179 256 238 200 186 175 170 163 158 156 154 155 159 160 167 162 166 165 167 166 164 172 162 169 164 165 160 168 168
242 274 259 233 229 234 231 227 236 220 250 256 223 46 353 291 266 259 217 206 238 253 250 260 313 71 74 80 101 115 105 80 52 52 54 51 38 37 38 38 33 31 26 22 18 17 16 16 18 15 10 0 348 338 316 320 296 284 199 243 241 176 171 169 164 160 159 158 158 152 153 155 161 159 166 163 167 166 169 166 168 168 165 163 168 159
297 315 226 269 260 228 187 172 227 278 292 279 336 36 206 252 277 286 294 268 247 17 34 73 91 118 56 209 127 66 47 48 49 37 36 37 33 41 46 42 37 34 28 23 21 14 12 15 13 13 15 12 12 6 8 9 334 203 214 277 250 179 175 168 165 161 159 152 139 142 120 116 124 142 147 169 170 161 174 171 166 167 159 162 163 166
243 238 235 268 279 283 172 136 99 341 323 330 314 299 327 6 325 230 250 260 35 298 236 90 118 115 99 35 49 64 56 55 49 39 35 39 35 31 46 50 42 37 33 29 27 22 15 12 11 10 10 12 8 6 13 13 9 270 202 240 263 206 181 173 165 162 161 149 142 132 121 111 59 110 157 172 177 172 176 162 160 163 154 161 157 168
295 264 331 312 312 311 278 184 156 198 249 218 323 331 335 13 30 8 26 8 352 272 302 108 138 121 99 65 62 56 50 57 50 43 41 37 36 30 25 32 37 32 29 30 29 23 18 14 11 10 14 14 13 14 13 8 12 11 1 178 248 161 308 193 174 156 146 142 136 125 122 127 98 63 186 169 165 167 164 156 155 154 148 147 154 163
331 282 338 27 311 317 280 245 226 228 248 267 5 13 2 4 33 34 2 16 10 5 104 114 87 70 54 57 51 53 54 60 56 43 41 39 33 28 31 33 33 28 25 26 25 23 22 20 17 16 16 15 16 14 18 17 16 15 356 344 54 69 154 219 154 121 132 123 119 118 116 111 112 174 172 152 170 165 158 164 156 142 141 144 148 149
246 141 84 357 358 302 294 333 237 219 184 136 32 28 25 4 39 23 21 14 359 85 56 112 113 85 59 59 64 52 55 63 55 44 35 34 29 27 32 34 30 27 27 25 24 24 26 25 23 21 23 24 20 20 21 18 13 22 15 16 24 31 28 23 93 106 91 113 143 147 139 145 169 173 162 154 156 154 153 147 141 142 143 147 150 147
225 261 146 244 278 332 281 244 240 185 157 112 48 35 24 19 22 21 39 18 13 353 316 190 110 101 114 89 76 63 58 47 44 41 37 30 31 32 35 33 31 31 29 28 28 28 29 30 29 27 28 27 23 22 20 15 14 16 13 9 35 26 37 47 65 81 85 80 74 69 122 155 173 166 154 156 147 140 131 127 123 111 102 98 108 124
238 252 255 266 278 249 258 256 162 206 187 193 37 14 11 38 16 52 54 39 23 353 19 25 57 70 109 120 93 65 54 49 42 29 23 30 34 36 36 33 35 35 35 33 34 35 34 35 35 36 37 37 34 35 30 29 25 24 10 22 25 37 42 43 51 58 66 77 81 68 63 73 67 63 65 70 79 83 98 91 94 93 90 81 69 74
275 258 227 149 259 4 6 341 232 220 229 66 23 18 7 24 18 43 42 36 23 21 21 9 32 45 57 63 68 65 59 52 49 43 36 30 28 33 37 36 36 36 38 39 39 39 42 43 45 40 44 45 44 44 35 25 35 26 21 28 34 40 45 54 52 58 48 49 57 68 69 64 71 64 51 67 72 69 66 67 70 76 76 82 75 64
221 240 211 205 206 238 95 354 239 238 107 159 39 33 29 39 18 35 64 38 25 16 10 39 38 46 53 67 78 81 77 70 57 48 38 35 44 44 39 41 39 38 43 44 44 46 47 50 49 43 37 33 32 39 38 33 29 23 34 25 38 43 51 47 54 49 47 50 48 54 51 60 61 58 53 59 66 75 75 68 60 59 57 58 55 63
200 221 152 236 166 111 188 173 243 65 154 165 82 31 13 46 17 316 90 40 26 16 4 36 37 54 66 82 91 95 92 83 65 49 41 40 37 40 49 48 49 48 53 52 53 50 53 50 49 48 40 34 34 37 37 40 26 40 44 39 47 48 54 54 49 50 44 48 48 51 57 68 67 71 66 64 64 63 59 58 59 50 44 69 78 80
228 189 214 231 182 227 87 110 99 145 130 48 28 12 17 359 349 3 17 44 19 11 0 12 40 47 66 86 105 118 122 102 65 45 34 34 40 44 48 53 56 58 56 54 57 59 56 54 52 50 45 39 34 33 34 28 26 42 48 42 40 38 50 52 47 43 47 47 47 51 55 53 61 68 74 72 77 76 70 65 63 66 66 70 72 71
0 240 218 262 218 231 138 138 147 196 152 67 39 3 4 354 320 305 283 103 23 14 7 6 47 83 99 97 111 128 266 10 48 33 24 34 38 47 49 48 51 53 51 49 43 38 41 52 57 51 48 45 41 34 26 22 27 41 46 47 35 35 42 43 36 31 41 43 40 52 53 59 55 52 52 66 72 72 69 65 61 59 58 86 88 81
181 181 64 274 263 208 204 194 180 139 72 28 7 350 345 343 299 227 245 98 16 11 9 17 45 68 105 121 79 335 301 206 71 46 24 31 43 45 50 51 53 51 44 35 26 25 33 39 49 59 59 55 48 32 27 32 31 35 41 39 39 39 42 38 32 29 33 34 37 43 48 52 57 50 43 53 62 74 79 76 77 80 59 48 98 110
186 203 184 239 232 249 235 121 76 44 73 6 343 341 332 324 203 207 225 68 11 13 19 30 50 67 98 17 0 41 9 104 116 54 31 33 35 44 49 53 53 51 42 35 31 23 29 31 41 44 49 55 59 54 43 38 45 43 39 38 37 36 37 33 24 27 33 36 38 41 43 44 50 60 58 46 53 62 69 76 71 62 84 144 132 121
126 174 230 221 238 75 89 103 112 99 64 355 344 330 351 33 217 252 21 359 359 10 15 15 45 27 22 28 40 64 51 65 85 75 52 44 44 47 53 52 48 42 41 32 18 9 24 32 39 42 38 40 48 56 61 56 53 46 40 43 42 33 22 16 23 32 34 35 39 42 44 44 45 46 48 55 58 58 61 62 61 53 48 45 47 72
47 346 70 275 154 181 148 103 91 85 30 342 334 328 9 258 342 62 18 355 12 32 28 34 43 44 58 71 81 86 87 89 88 82 70 59 57 42 40 45 51 67 68 52 33 24 34 39 41 39 36 35 39 43 45 54 61 57 51 48 41 29 15 14 19 24 32 37 37 41 43 40 38 40 41 39 46 56 60 58 60 69 66 69 76 86
20 326 81 24 327 193 107 104 107 69 27 356 319 250 10 7 64 69 50 56 50 52 54 58 68 75 87 88 93 96 93 87 85 80 73 68 68 64 49 38 37 24 30 44 46 33 32 39 41 41 42 38 39 40 42 51 55 51 51 51 42 28 25 17 17 19 22 29 33 36 41 39 37 38 39 42 43 48 53 57 74 79 79 90 105 107
339 235 83 57 345 47 60 60 58 22 331 4 25 64 28 53 68 22 264 81 64 66 72 76 77 87 89 93 91 87 86 86 84 87 88 85 78 70 64 60 53 39 26 33 37 34 39 45 45 46 43 46 52 51 46 53 62 59 56 48 28 25 18 19 19 20 21 17 24 28 36 46 48 45 44 44 49 56 54 50 58 70 75 83 109 111
20 59 44 72 30 49 77 94 129 109 62 48 58 71 78 76 73 63 65 67 77 70 80 82 85 85 87 90 90 91 87 78 77 73 73 72 74 73 72 67 60 52 39 26 28 29 38 43 48 51 49 44 46 54 60 57 62 65 66 58 46 45 49 35 27 22 14 6 6 16 26 37 48 50 51 53 57 64 68 65 54 72 66 83 73 98
104 102 94 82 82 88 87 94 102 92 86 85 78 79 83 86 84 82 80 83 72 80 82 89 87 88 88 85 83 74 76 85 89 86 83 72 66 65 67 66 60 63 54 38 29 22 25 38 48 49 49 47 47 51 49 52 53 57 60 58 58 51 45 48 45 37 49 59 29 6 9 22 56 58 46 77 70 61 50 49 44 31 44 40 45 42
130 130 96 106 143 112 78 87 90 90 88 84 82 80 81 82 85 88 88 88 96 95 93 90 91 86 82 81 79 81 78 76 76 67 69 101 106 101 84 71 70 55 51 49 22 12 33 36 40 46 48 49 44 45 51 56 57 58 54 54 54 52 47 45 53 58 30 25 45 51 41 26 355 16 44 29 45 50 40 34 46 54 32 26 25 35
89 81 77 76 83 87 107 101 89 83 81 83 82 83 79 79 80 81 85 92 96 98 99 104 105 102 101 92 85 82 82 76 75 75 71 63 60 66 76 89 84 74 61 31 17 15 36 44 49 51 46 47 45 44 42 40 52 63 57 56 53 59 64 56 42 54 62 60 51 30 27 31 324 343 63 45 39 32 25 20 12 32 43 24 12 3
90 126 81 97 94 98 106 102 97 87 81 76 76 74 78 86 94 97 98 98 97 99 103 104 105 108 107 106 106 102 91 81 76 80 82 78 74 66 70 88 97 100 128 73 40 24 25 20 41 45 50 53 54 53 45 38 33 36 53 50 52 47 45 46 46 42 43 38 43 50 32 37 36 36 63 98 87 64 42 28 26 20 53 43 20 24
108 99 122 124 113 113 112 120 135 113 101 91 82 82 85 86 88 88 90 97 105 110 111 107 104 102 106 113 115 113 103 99 88 77 68 60 64 60 58 61 114 154 161 167 353 19 40 33 25 28 27 41 39 46 39 40 39 31 35 43 46 46 41 40 46 55 47 31 24 15 20 23 30 36 32 41 109 117 79 16 6 42 66 69 82 58
50 338 188 99 110 114 117 105 91 94 98 94 104 103 98 92 92 92 89 85 79 80 103 117 115 117 117 112 105 103 107 110 107 104 94 88 57 32 22 30 30 250 244 189 236 286 57 38 26 21 23 16 19 40 44 32 26 31 39 38 36 32 25 18 37 59 64 61 47 356 337 28 19 20 36 45 19 115 143 128 94 36 84 119 130 113